COSMOS 2251 DEB, 34965

Orbit data source: Space-Track

COSMOS 2251 DEB, 34965 is space debris in LEO originally from a launch on Wed, 16 Jun 1993 UTC launched from the Plesetsk Missile And Space Complex (PKMTR). The debris from Iridium 33, an American commercial communications satellite, has been tracked extensively since its accidental collision with the defunct Russian satellite Cosmos 2251 in 2009. This event, occurring at high speed in low Earth orbit (LEO), generated thousands of pieces of space debris, significantly increasing the risk of further collisions. The Iridium 33 debris cloud has impacted space traffic management and orbital debris mitigation strategies, making it a subject of ongoing study in space situational awareness.

Loading next visibility...
Identifier
34965, 1993-036AEU
Orbit
LEO
Country
Flag of CISCIS
Related business
Manufacturer
Unknown
Mission
Spacecraft
Bus & Motor
Unknown
Mass
Unknown
Launch date (UTC)
1993-06-16 (33 years ago)
Launch vehicle
Unknown
Launch site
Plesetsk Missile And Space Complex (PKMTR)
Object type
Payload
Rocket body
Debris
Shape & HBR
Unknown shape, 0.1 m
Radar Cross Section
Small (<0.1 m²)

Expand to show TLE details & history
Last TLE update: 1 day ago

TLE from 1 day ago
0 COSMOS 2251 DEB
1 34965U 93036AEU 26106.14732492  .00000534  00000-0  14741-3 0  9997
2 34965  74.0507 255.4958 0025652 348.9587  11.1006 14.49026094889153
Epoch: 2026-04-16T03:32Z
TLE epoch observation values (Epoch: 2026-04-16T03:32:08.873Z)
Latitude
-0.00003°
Longitude
-1.84022°
Altitude
713.568 km
Speed
7.508 km/s
True Right ascension
17h 01m 58s
True Declination
0° 00' 00"
Sunlit
Object was in full shadow at epoch
Visualization orbit readout
Latitude
Unknown
Longitude
Unknown
Altitude
Unknown
Speed
Unknown
Apparent Right ascension
Unknown
Apparent Declination
Unknown
Sunlit
N/A
Visualization observer readout
Local Sidereal Time
17:06:05
Azimuth
Unknown
Elevation
Unknown
Doppler factor
Unknown
Orbital elements
Apogee altitude
744.664 km
Perigee altitude
708.215 km
Semi-major axis
7,104.577 km
Eccentricity
0.00257
Inclination
74.0507°
RAAN
255.4958°
Arg. of periapsis
348.9587°
True anomaly
11.15737°
Mean anomaly
11.1006°
Eccentric anomaly
11.12897°
Mean motion
3.6244 °/min
Orbital period
99.33 mins
BSTAR
0.00014741

Documentation

Showing up to 5 results
|